Regional Weather Roundup
Issued by NWS Sterling, VA

Home | Current Version | Previous Version | Graphics & Text | Print | Product List | Glossary On
Versions: 1 2 3 4 5 6 7 8 9 10 11 12 13 14 15 16 17 18 19 20 21 22 23 24 25 26 27 28 29 30 31 32 33 34 35 36 37 38 39 40 41 42 43 44 45 46 47 48 49 50
000
ASUS41 KLWX 211110
RWRLWX

REGIONAL WEATHER ROUNDUP
NATIONAL WEATHER SERVICE BALTIMORE MD/WASHINGTON DC
700 AM EDT THU AUG 21 2014

Note: "FAIR" indicates few or no clouds below 12,000 feet
with no significant weather and/or obstructions to visibility.
 TC=TEMPERATURE CELSIUS

 * =Non NWS site. Station does not report precipitation (e.g. rain,
    snow, etc.), thunder, or fog.

DCZ001-MDZ009-015-VAZ040>042-051-053>054-211200-
WASHINGTON METRO
  /KDAA//-FT BELVOIR

CITY           SKY/WX    TMP DP  RH WIND       PRES   REMARKS
WASHINGTON NAT PTCLDY    72  66  81 CALM      30.04R
DULLES         FOG       64  64 100 CALM      30.05R VSB<1/4
ANDREWS AFB    CLEAR     66  66 100 N1        30.03R
QUANTICO       PTCLDY    68  65  90 NW7       30.04R
COLLEGE PARK*  MOCLDY    64  64 100 CALM      30.03R
LEESBURG*      FOG       64  64 100 CALM      30.05R VSB 1/4
GAITHERSBURG*  MOCLDY    64  63  94 CALM      30.08R

$$

MDZ006>007-011-014-211200-
BALTIMORE METRO

CITY           SKY/WX    TMP DP  RH WIND       PRES   REMARKS
BWI AIRPORT    PTCLDY    65  63  93 CALM      30.03R
MD SCIENCE CTR   N/A     73  69  87 MISG      30.04R
MARTIN STATE   MOCLDY    73  72  94 E5        30.03R
ANNAPOLIS      CLEAR     73  70  90 CALM      30.02R
FORT MEADE*    CLEAR     63  61  94 CALM      30.05R

$$

MDZ012-015-019>023-211200-
MARYLAND EASTERN SHORE

CITY           SKY/WX    TMP DP  RH WIND       PRES   REMARKS
OCEAN CITY     CLEAR     70  68  93 CALM      30.03R FOG
SALISBURY      MOCLDY    70  65  84 CALM      30.03R
BAY BRIDGE AP*   N/A     72  68  88 SE5       30.03R
CAMBRIDGE*     PTCLDY    70  66  88 CALM      30.03R
EASTON*        PTCLDY    68  68 100 CALM      30.07R

$$

MDZ017>025-211200-
SOUTHERN MARYLAND

CITY           SKY/WX    TMP DP  RH WIND       PRES   REMARKS
PATUXENT RIVER MOCLDY    73  71  93 CALM      30.02R
ST INIGOES     CLOUDY    73  69  87 CALM      30.02R
LEONARDTOWN*     N/A     70  68  94 CALM      30.05R

$$

MDZ003>005-211200-
NORTH CENTRAL MARYLAND

CITY           SKY/WX    TMP DP  RH WIND       PRES   REMARKS
FREDERICK*     CLOUDY   N/A N/A N/A CALM      30.07R FOG
HAGERSTOWN APT CLOUDY    68  65  90 CALM      30.05R
WESTMINSTER*   RAIN      68  66  94 CALM      30.06R

$$

MDZ501>502-211200-
WESTERN MARYLAND

CITY           SKY/WX    TMP DP  RH WIND       PRES   REMARKS
OAKLAND*       PTCLDY    63 N/A N/A SW7       30.13R FOG
CUMBERLAND*    CLOUDY    70  68  94 CALM      30.09R

$$

VAZ025>031-211200-
SHENANDOAH VALLEY

CITY           SKY/WX    TMP DP  RH WIND       PRES   REMARKS
WINCHESTER*    LGT RAIN  68  68 100 CALM      30.05R
STAUNTON*      FOG       64  62  95 CALM      30.10R VSB 1/4

$$

WVZ021-048>050-054>055-211200-
EASTERN WEST VIRGINIA PANHANDLE

CITY           SKY/WX    TMP DP  RH WIND       PRES   REMARKS
MARTINSBURG    FOG       67  65  93 NW3       30.05R VSB<1/4
PETERSBURG*    NOT AVBL

$$

VAZ036>039-050-211200-
CENTRAL FOOTHILLS

CITY           SKY/WX    TMP DP  RH WIND       PRES   REMARKS
CHARLOTTESVILL FOG       65  64  97 CALM      30.05R VSB 1/2
ORANGE*        FOG       68  64  88 CALM      30.06R VSB 1/4

$$

VAZ055>057-211200-
NORTH AND CENTRAL PIEDMONT

CITY           SKY/WX    TMP DP  RH WIND       PRES   REMARKS
FREDERICKSBRG* FOG       66  66 100 CALM      30.03R VSB 3/4
STAFFORD*      PTCLDY    64  64 100 CALM      30.08R

$$

NCZ024-NYZ072-PAZ021-071-VAZ022-071-211200-
OTHER REGIONAL OBSERVATIONS

CITY           SKY/WX    TMP DP  RH WIND       PRES   REMARKS
NEW YORK CITY  CLOUDY    67  63  87 CALM      30.07R
PHILADELPHIA   PTCLDY    69  64  84 SE6       30.04R
PITTSBURGH     MOCLDY    66  65  96 CALM      30.03R
ROANOKE        PTCLDY    71  63  75 SE3       30.11R
RICHMOND       PTCLDY    71  68  90 CALM      30.02R
RALEIGH        PTCLDY    71  69  93 CALM      30.05R FOG

$$

ANZ530>537-211200-
MARINE OBSERVATIONS

STATION/POSITION TIME  TEMP    WIND        PRES
                       AIR SEA DIR/SP/G
                 (UTC) (F)     (DEG/KT/KT) (MB)
THOMAS PT LIGHT  1100   73 78  110/  8/  9 1017.2R
BALT KEY BRIDGE  1100   74     140/  3/  3 1016.2S
COVE POINT       1100   75     230/  5/  6 1016.4S
LEWISETTA        1100   74 79  280/  3/  4 1016.2R
SOLOMONS ISLAND  1100      80                N/A
PINEY POINT      1100          230/  5/  5   N/A

$$



USA.gov is the U.S. government's official web portal to all federal, state and local government web resources and services.